Lordsburg, NM

3:41 PM MDT on March 23, 2017 (GMT -0600)
Lordsburg

Weather History for KLSB - December, 2012

Change the Weather History Date:

Friday, December 21, 2012

  Actual Average Record
Temperature  
Mean Temperature 44 °F -  
Max Temperature 55 °F 57 °F 55 °F (2012)
Min Temperature 32 °F 25 °F 30 °F (2014)
Degree Days  
Heating Degree Days 22    
Moisture  
Dew Point 7 °F    
Average Humidity 26    
Maximum Humidity 38    
Minimum Humidity 13    
Precipitation  
Precipitation 0.00 in - - ()
Sea Level Pressure  
Sea Level Pressure 30.25 in    
Wind  
Wind Speed 12 mph (SSE)    
Max Wind Speed 22 mph    
Max Gust Speed 29 mph    
Visibility 10 miles    
Events      
Averages and records for this station are not official NWS values.
T = Trace of Precipitation, MM = Missing Value Source: NWS Daily Summary

Daily Weather History Graph

Daily Weather History Graph

Search for Another Location

Airport or City:

Trip Planner

Search our weather history database for the weather conditions in past years. The results will help you decide how hot, cold, wet, or windy it might be!

Date:

Astronomy

Dec. 21, 2012 Rise Set
Actual Time 7:17 AM MST 5:09 PM MST
Civil Twilight 6:49 AM MST 5:36 PM MST
Nautical Twilight 6:18 AM MST 6:08 PM MST
Astronomical Twilight 5:47 AM MST 6:39 PM MST
Moon 12:48 PM MST (12/21) 1:17 AM MST (12/21)
Length of Visible Light 10h 47m
Length of Day
9h 51m
Waxing Gibbous, 65% of the Moon is Illuminated
Dec 21
Waxing Gibbous
Dec 28
Full
Jan 4
Last Quarter
Jan 11
New
Jan 18
First Quarter

Hourly Weather History & Observations

Time (MST) Temp. Windchill Dew Point Humidity Pressure Visibility Wind Dir Wind Speed Gust Speed Precip Events Conditions
12:15 AM 32.0 °F 23.6 °F 8.6 °F 38% 30.32 in 10.0 mi SSE 10.4 mph - N/A   Clear
12:35 AM 33.8 °F 26.4 °F 6.8 °F 32% 30.31 in 10.0 mi SSE 9.2 mph - N/A   Clear
12:55 AM 33.8 °F 24.8 °F 6.8 °F 32% 30.31 in 10.0 mi SSE 12.7 mph - N/A   Clear
1:15 AM 33.8 °F 25.3 °F 6.8 °F 32% 30.31 in 10.0 mi South 11.5 mph - N/A   Clear
1:35 AM 32.0 °F 23.0 °F 6.8 °F 35% 30.29 in 10.0 mi SSE 11.5 mph - N/A   Clear
1:55 AM 32.0 °F 21.6 °F 6.8 °F 35% 30.30 in 10.0 mi SSE 15.0 mph - N/A   Clear
2:15 AM 32.0 °F 22.5 °F 6.8 °F 35% 30.30 in 10.0 mi SE 12.7 mph - N/A   Clear
2:35 AM 32.0 °F 23.6 °F 6.8 °F 35% 30.29 in 10.0 mi SE 10.4 mph - N/A   Clear
2:55 AM 32.0 °F 23.0 °F 5.0 °F 32% 30.29 in 10.0 mi SE 11.5 mph - N/A   Clear
3:15 AM 32.0 °F 23.6 °F 6.8 °F 35% 30.29 in 10.0 mi SE 10.4 mph - N/A   Clear
3:35 AM 32.0 °F 23.6 °F 6.8 °F 35% 30.29 in 10.0 mi SSE 10.4 mph - N/A   Clear
3:55 AM 32.0 °F 23.0 °F 6.8 °F 35% 30.29 in 10.0 mi SSE 11.5 mph - N/A   Clear
4:15 AM 32.0 °F 22.5 °F 6.8 °F 35% 30.28 in 10.0 mi SSE 12.7 mph - N/A   Clear
4:35 AM 32.0 °F 23.0 °F 6.8 °F 35% 30.28 in 10.0 mi SSE 11.5 mph - N/A   Clear
4:55 AM 32.0 °F 23.0 °F 5.0 °F 32% 30.29 in 10.0 mi SSE 11.5 mph - N/A   Clear
5:15 AM 32.0 °F 23.0 °F 5.0 °F 32% 30.28 in 10.0 mi SE 11.5 mph - N/A   Clear
5:35 AM 32.0 °F 23.0 °F 6.8 °F 35% 30.28 in 10.0 mi SSE 11.5 mph - N/A   Clear
5:55 AM 32.0 °F 23.0 °F 5.0 °F 32% 30.27 in 10.0 mi SE 11.5 mph - N/A   Clear
6:15 AM 32.0 °F 22.1 °F 5.0 °F 32% 30.27 in 10.0 mi SSE 13.8 mph 18.4 mph N/A   Clear
6:35 AM 32.0 °F 23.0 °F 5.0 °F 32% 30.28 in 10.0 mi SSE 11.5 mph - N/A   Clear
6:55 AM 32.0 °F 22.5 °F 6.8 °F 35% 30.28 in 10.0 mi SSE 12.7 mph - N/A   Clear
7:15 AM 32.0 °F 22.1 °F 6.8 °F 35% 30.29 in 10.0 mi South 13.8 mph - N/A   Clear
7:35 AM 32.0 °F 22.5 °F 5.0 °F 32% 30.29 in 10.0 mi SSE 12.7 mph 17.3 mph N/A   Clear
7:55 AM 32.0 °F 22.5 °F 6.8 °F 35% 30.29 in 10.0 mi SSE 12.7 mph 17.3 mph N/A   Clear
8:15 AM 33.8 °F 25.8 °F 8.6 °F 35% 30.29 in 10.0 mi SSE 10.4 mph 17.3 mph N/A   Clear
8:35 AM 35.6 °F 26.6 °F 8.6 °F 33% 30.30 in 10.0 mi SSE 13.8 mph - N/A   Clear
8:55 AM 37.4 °F 29.8 °F 8.6 °F 30% 30.30 in 10.0 mi SSE 11.5 mph - N/A   Clear
9:15 AM 39.2 °F 31.6 °F 8.6 °F 28% 30.31 in 10.0 mi SSE 12.7 mph 17.3 mph N/A   Clear
9:35 AM 41.0 °F 33.9 °F 8.6 °F 26% 30.31 in 10.0 mi SSE 12.7 mph - N/A   Clear
9:55 AM 44.6 °F 38.8 °F 8.6 °F 23% 30.31 in 10.0 mi SSE 11.5 mph - N/A   Clear
10:15 AM 50.0 °F - 3.2 °F 15% 30.31 in 10.0 mi ESE 20.7 mph 26.5 mph N/A   Clear
10:35 AM 50.0 °F - 3.2 °F 15% 30.31 in 10.0 mi ESE 19.6 mph 26.5 mph N/A   Clear
10:55 AM 50.0 °F - 3.2 °F 15% 30.29 in 10.0 mi ESE 21.9 mph 27.6 mph N/A   Clear
11:15 AM 51.8 °F - 3.2 °F 14% 30.28 in 10.0 mi ESE 18.4 mph 28.8 mph N/A   Clear
11:35 AM 51.8 °F - 3.2 °F 14% 30.27 in 10.0 mi SE 19.6 mph 25.3 mph N/A   Clear
11:55 AM 51.8 °F - 5.0 °F 15% 30.26 in 10.0 mi SE 17.3 mph 23.0 mph N/A   Clear
12:15 PM 51.8 °F - 5.0 °F 15% 30.25 in 10.0 mi SE 16.1 mph 25.3 mph N/A   Clear
12:35 PM 53.6 °F - 5.0 °F 14% 30.23 in 10.0 mi SE 16.1 mph 20.7 mph N/A   Clear
12:55 PM 53.6 °F - 5.0 °F 14% 30.22 in 10.0 mi ESE 15.0 mph 20.7 mph N/A   Clear
1:15 PM 53.6 °F - 5.0 °F 14% 30.21 in 10.0 mi SE 16.1 mph 23.0 mph N/A   Clear
1:35 PM 55.4 °F - 5.0 °F 13% 30.19 in 10.0 mi SE 16.1 mph 21.9 mph N/A   Clear
1:55 PM 55.4 °F - 5.0 °F 13% 30.19 in 10.0 mi SE 12.7 mph 20.7 mph N/A   Clear
2:15 PM 55.4 °F - 5.0 °F 13% 30.19 in 10.0 mi SE 15.0 mph 24.2 mph N/A   Clear
2:35 PM 55.4 °F - 5.0 °F 13% 30.18 in 10.0 mi SE 13.8 mph 21.9 mph N/A   Clear
2:55 PM 55.4 °F - 5.0 °F 13% 30.17 in 10.0 mi SE 15.0 mph 19.6 mph N/A   Clear
3:15 PM 55.4 °F - 6.8 °F 14% 30.18 in 10.0 mi SE 12.7 mph 20.7 mph N/A   Clear
3:35 PM 53.6 °F - 5.0 °F 14% 30.17 in 10.0 mi ESE 13.8 mph - N/A   Clear
3:55 PM 53.6 °F - 6.8 °F 15% 30.17 in 10.0 mi SE 11.5 mph - N/A   Clear
4:15 PM 53.6 °F - 6.8 °F 15% 30.17 in 10.0 mi SE 11.5 mph - N/A   Clear
4:35 PM 53.6 °F - 6.8 °F 15% 30.18 in 10.0 mi SE 11.5 mph 16.1 mph N/A   Clear
4:55 PM 51.8 °F - 6.8 °F 16% 30.18 in 10.0 mi SE 9.2 mph - N/A   Clear
5:15 PM 50.0 °F - 8.6 °F 19% 30.18 in 10.0 mi SE 9.2 mph - N/A   Clear
5:35 PM 46.4 °F 41.9 °F 8.6 °F 22% 30.19 in 10.0 mi SE 9.2 mph - N/A   Clear
5:55 PM 44.6 °F 40.7 °F 8.6 °F 23% 30.20 in 10.0 mi SSE 6.9 mph - N/A   Clear
6:15 PM 44.6 °F 40.7 °F 8.6 °F 23% 30.20 in 10.0 mi SE 6.9 mph - N/A   Clear
6:35 PM 42.8 °F 38.6 °F 10.4 °F 27% 30.21 in 10.0 mi SSE 6.9 mph - N/A   Clear
6:55 PM 41.0 °F 36.4 °F 10.4 °F 29% 30.21 in 10.0 mi SSE 6.9 mph - N/A   Clear
7:15 PM 41.0 °F 36.4 °F 10.4 °F 29% 30.23 in 10.0 mi SSE 6.9 mph - N/A   Clear
7:35 PM 41.0 °F 36.4 °F 10.4 °F 29% 30.23 in 10.0 mi SSE 6.9 mph - N/A   Clear
7:55 PM 41.0 °F 35.8 °F 10.4 °F 29% 30.23 in 10.0 mi SSE 8.1 mph - N/A   Clear
8:15 PM 41.0 °F 35.8 °F 10.4 °F 29% 30.23 in 10.0 mi SSE 8.1 mph - N/A   Clear
8:35 PM 41.0 °F 35.8 °F 10.4 °F 29% 30.23 in 10.0 mi SSE 8.1 mph - N/A   Clear
8:55 PM 39.2 °F 33.6 °F 10.4 °F 31% 30.23 in 10.0 mi SSE 8.1 mph - N/A   Clear
9:15 PM 37.4 °F 30.8 °F 10.4 °F 33% 30.23 in 10.0 mi South 9.2 mph - N/A   Clear
9:35 PM 39.2 °F 33.6 °F 10.4 °F 31% 30.23 in 10.0 mi South 8.1 mph - N/A   Clear
9:55 PM 39.2 °F 33.6 °F 10.4 °F 31% 30.23 in 10.0 mi SSE 8.1 mph - N/A   Clear
10:15 PM 41.0 °F 35.8 °F 10.4 °F 29% 30.23 in 10.0 mi South 8.1 mph - N/A   Clear
10:35 PM 41.0 °F 35.2 °F 10.4 °F 29% 30.23 in 10.0 mi South 9.2 mph - N/A   Clear
10:55 PM 41.0 °F 36.4 °F 10.4 °F 29% 30.21 in 10.0 mi SSE 6.9 mph - N/A   Clear
11:15 PM 41.0 °F 36.4 °F 10.4 °F 29% 30.21 in 10.0 mi South 6.9 mph - N/A   Clear
11:35 PM 41.0 °F 35.8 °F 10.4 °F 29% 30.21 in 10.0 mi South 8.1 mph - N/A   Clear
11:55 PM 41.0 °F 34.7 °F 10.4 °F 29% 30.21 in 10.0 mi SSE 10.4 mph - N/A   Clear